Viroqua, WI

1:07 PM CDT on June 28, 2017 (GMT -0500)
Viroqua

Weather History for KY51 - December, 2012

Change the Weather History Date:

Thursday, December 13, 2012

  Actual Average (KCMY) Record (KCMY)
Temperature  
Mean Temperature 34 °F -  
Max Temperature 39 °F 30 °F 52 °F (1968)
Min Temperature 28 °F 11 °F -20 °F (1958)
Degree Days  
Heating Degree Days 32    
Moisture  
Dew Point 22 °F    
Average Humidity 63    
Maximum Humidity 80    
Minimum Humidity 52    
Precipitation  
Precipitation 0.00 in - - ()
Sea Level Pressure  
Sea Level Pressure 30.04 in    
Wind  
Wind Speed 10 mph (SSW)    
Max Wind Speed 15 mph    
Max Gust Speed 22 mph    
Visibility 10 miles    
Events      
Averages and records for this station are not official NWS values.
T = Trace of Precipitation, MM = Missing Value Source: NWS Daily Summary

Daily Weather History Graph

Daily Weather History Graph

Search for Another Location

Airport or City:

Trip Planner

Search our weather history database for the weather conditions in past years. The results will help you decide how hot, cold, wet, or windy it might be!

Date:

Astronomy

Dec. 13, 2012 Rise Set
Actual Time 7:28 AM CST 4:27 PM CST
Civil Twilight 6:56 AM CST 5:00 PM CST
Nautical Twilight 6:19 AM CST 5:36 PM CST
Astronomical Twilight 5:45 AM CST 6:11 PM CST
Moon 7:36 AM CST (12/13) 5:10 PM CST (12/13)
Length of Visible Light 10h 03m
Length of Day
8h 58m
New Moon, 0% of the Moon is Illuminated
Dec 13
New Moon
Dec 19
First Quarter
Dec 28
Full
Jan 4
Last Quarter
Jan 11
New

Hourly Weather History & Observations

Time (CST) Temp. Windchill Dew Point Humidity Pressure Visibility Wind Dir Wind Speed Gust Speed Precip Events Conditions
12:15 AM 33.8 °F 24.8 °F 23.0 °F 65% 30.08 in 10.0 mi SSW 12.7 mph 18.4 mph N/A   Clear
12:35 AM 33.8 °F 24.8 °F 23.0 °F 65% 30.07 in 10.0 mi South 12.7 mph - N/A   Clear
12:55 AM 33.8 °F 25.3 °F 21.2 °F 60% 30.07 in 10.0 mi South 11.5 mph - N/A   Clear
1:15 AM 33.8 °F 26.4 °F 21.2 °F 60% 30.07 in 10.0 mi South 9.2 mph - N/A   Clear
1:35 AM 32.0 °F 24.2 °F 21.2 °F 64% 30.07 in 10.0 mi South 9.2 mph - N/A   Clear
1:55 AM 32.0 °F 24.2 °F 21.2 °F 64% 30.07 in 10.0 mi South 9.2 mph - N/A   Clear
2:15 AM 32.0 °F 23.0 °F 21.2 °F 64% 30.07 in 10.0 mi South 11.5 mph - N/A   Clear
2:35 AM 32.0 °F 23.6 °F 21.2 °F 64% 30.07 in 10.0 mi South 10.4 mph - N/A   Clear
2:55 AM 32.0 °F 23.6 °F 21.2 °F 64% 30.06 in 10.0 mi South 10.4 mph - N/A   Clear
3:15 AM 32.0 °F 23.0 °F 21.2 °F 64% 30.06 in 10.0 mi South 11.5 mph - N/A   Clear
3:35 AM 32.0 °F 23.0 °F 21.2 °F 64% 30.05 in 10.0 mi South 11.5 mph - N/A   Clear
3:55 AM 32.0 °F 23.0 °F 21.2 °F 64% 30.04 in 10.0 mi South 11.5 mph - N/A   Clear
4:15 AM 32.0 °F 23.0 °F 21.2 °F 64% 30.04 in 10.0 mi South 11.5 mph 16.1 mph N/A   Clear
4:35 AM 32.0 °F 22.5 °F 21.2 °F 64% 30.03 in 10.0 mi South 12.7 mph - N/A   Clear
4:55 AM 32.0 °F 23.0 °F 21.2 °F 64% 30.03 in 10.0 mi South 11.5 mph - N/A   Clear
5:15 AM 32.0 °F 23.0 °F 21.2 °F 64% 30.03 in 10.0 mi South 11.5 mph - N/A   Clear
5:35 AM 32.0 °F 23.6 °F 21.2 °F 64% 30.02 in 10.0 mi South 10.4 mph - N/A   Clear
5:55 AM 32.0 °F 24.2 °F 19.4 °F 60% 30.02 in 10.0 mi South 9.2 mph - N/A   Clear
6:15 AM 32.0 °F 23.0 °F 19.4 °F 60% 30.01 in 10.0 mi South 11.5 mph 17.3 mph N/A   Clear
6:35 AM 32.0 °F 24.2 °F 19.4 °F 60% 30.01 in 10.0 mi South 9.2 mph - N/A   Clear
6:55 AM 32.0 °F 24.2 °F 19.4 °F 60% 30.02 in 10.0 mi South 9.2 mph - N/A   Clear
7:15 AM 32.0 °F 24.8 °F 19.4 °F 60% 30.02 in 10.0 mi South 8.1 mph - N/A   Clear
7:35 AM 32.0 °F 23.6 °F 19.4 °F 60% 30.01 in 10.0 mi South 10.4 mph - N/A   Clear
7:55 AM 32.0 °F 24.2 °F 21.2 °F 64% 30.02 in 10.0 mi South 9.2 mph - N/A   Clear
8:15 AM 32.0 °F 24.2 °F 21.2 °F 64% 30.02 in 10.0 mi South 9.2 mph - N/A   Clear
8:35 AM 32.0 °F 24.2 °F 21.2 °F 64% 30.02 in 10.0 mi South 9.2 mph - N/A   Clear
8:55 AM 33.8 °F 25.3 °F 21.2 °F 60% 30.02 in 10.0 mi South 11.5 mph 18.4 mph N/A   Clear
9:15 AM 33.8 °F 24.3 °F 21.2 °F 60% 30.02 in 10.0 mi SSW 13.8 mph - N/A   Clear
9:35 AM 33.8 °F 23.9 °F 21.2 °F 60% 30.02 in 10.0 mi SSW 15.0 mph 21.9 mph N/A   Clear
9:55 AM 33.8 °F 24.3 °F 21.2 °F 60% 30.03 in 10.0 mi SSW 13.8 mph - N/A   Clear
10:15 AM 33.8 °F 25.8 °F 21.2 °F 60% 30.02 in 10.0 mi SSW 10.4 mph - N/A   Clear
10:35 AM 35.6 °F 27.1 °F 23.0 °F 60% 30.03 in 10.0 mi SSW 12.7 mph - N/A   Clear
10:55 AM 37.4 °F 30.3 °F 23.0 °F 56% 30.02 in 10.0 mi SW 10.4 mph - N/A   Clear
11:15 AM 37.4 °F 28.9 °F 23.0 °F 56% 30.02 in 10.0 mi SW 13.8 mph 20.7 mph N/A   Clear
11:35 AM 37.4 °F 29.8 °F 23.0 °F 56% 30.01 in 10.0 mi SSW 11.5 mph - N/A   Clear
11:55 AM 37.4 °F 28.5 °F 23.0 °F 56% 30.02 in 10.0 mi SW 15.0 mph - N/A   Clear
12:15 PM 37.4 °F 29.3 °F 24.8 °F 60% 30.00 in 10.0 mi SSW 12.7 mph - N/A   Clear
12:35 PM 37.4 °F 30.3 °F 24.8 °F 60% 30.00 in 10.0 mi SSW 10.4 mph - N/A   Clear
12:55 PM 37.4 °F 30.8 °F 24.8 °F 60% 30.00 in 10.0 mi SSW 9.2 mph - N/A   Clear
1:15 PM 39.2 °F 32.5 °F 23.0 °F 52% 30.00 in 10.0 mi SW 10.4 mph - N/A   Clear
1:35 PM 39.2 °F 32.0 °F 24.8 °F 56% 30.00 in 10.0 mi SW 11.5 mph - N/A   Clear
1:55 PM 39.2 °F 32.0 °F 23.0 °F 52% 30.00 in 10.0 mi SW 11.5 mph - N/A   Clear
2:15 PM 39.2 °F 32.0 °F 23.0 °F 52% 30.00 in 10.0 mi WSW 11.5 mph - N/A   Clear
2:35 PM 39.2 °F 33.6 °F 24.8 °F 56% 30.00 in 10.0 mi WSW 8.1 mph - N/A   Clear
2:55 PM 37.4 °F 31.4 °F 24.8 °F 60% 30.01 in 10.0 mi WSW 8.1 mph - N/A   Clear
3:15 PM 37.4 °F 31.4 °F 24.8 °F 60% 30.01 in 10.0 mi SW 8.1 mph - N/A   Clear
3:35 PM 37.4 °F 30.8 °F 24.8 °F 60% 30.00 in 10.0 mi SW 9.2 mph - N/A   Clear
3:55 PM 35.6 °F 31.7 °F 24.8 °F 65% 30.02 in 10.0 mi SW 4.6 mph - N/A   Clear
4:35 PM 33.8 °F 29.6 °F 23.0 °F 65% 30.02 in 10.0 mi SW 4.6 mph - N/A   Clear
5:35 PM 32.0 °F 28.7 °F 23.0 °F 69% 30.04 in 10.0 mi SSW 3.5 mph - N/A   Clear
6:15 PM 32.0 °F - 23.0 °F 69% 30.05 in 10.0 mi Calm Calm - N/A   Clear
6:55 PM 33.8 °F 30.8 °F 23.0 °F 65% 30.05 in 10.0 mi WSW 3.5 mph - N/A   Clear
7:15 PM 33.8 °F 30.8 °F 23.0 °F 65% 30.06 in 10.0 mi WSW 3.5 mph - N/A   Clear
7:55 PM 32.0 °F - 23.0 °F 69% 30.06 in 10.0 mi Calm Calm - N/A   Clear
8:15 PM 32.0 °F - 23.0 °F 69% 30.05 in 10.0 mi Calm Calm - N/A   Clear
8:35 PM 32.0 °F - 23.0 °F 69% 30.06 in 10.0 mi Calm Calm - N/A   Clear
8:55 PM 33.8 °F - 23.0 °F 65% 30.06 in 10.0 mi Calm Calm - N/A   Clear
9:15 PM 33.8 °F - 23.0 °F 65% 30.07 in 10.0 mi Calm Calm - N/A   Clear
9:35 PM 33.8 °F - 23.0 °F 65% 30.07 in 10.0 mi Calm Calm - N/A   Clear
9:55 PM 32.0 °F - 23.0 °F 69% 30.07 in 10.0 mi Calm Calm - N/A   Clear
10:15 PM 32.0 °F - 23.0 °F 69% 30.07 in 10.0 mi Calm Calm - N/A   Clear
10:35 PM 28.4 °F 23.3 °F 23.0 °F 80% 30.07 in 10.0 mi East 4.6 mph - N/A   Clear
10:55 PM 30.2 °F 25.4 °F 23.0 °F 75% 30.08 in 10.0 mi East 4.6 mph - N/A   Clear
11:15 PM 32.0 °F 28.7 °F 23.0 °F 69% 30.09 in 10.0 mi ESE 3.5 mph - N/A   Clear
11:35 PM 32.0 °F 28.7 °F 23.0 °F 69% 30.10 in 10.0 mi ESE 3.5 mph - N/A   Clear
11:55 PM 32.0 °F 28.7 °F 23.0 °F 69% 30.09 in 10.0 mi East 3.5 mph - N/A   Clear